This demonstration page uses our WeatherBlox Daily Observations layout. Learn more.

Left ArrowRight Arrow

39.51506, -84.39828

Hourly Observations for June 4, 2019

Temp ( °F °C ) Dew Point ( °F °C ) Humidity (%) Winds ( mph kmh ) Pressure ( in mb ) Visibility ( mi km ) Precip ( " mm )
12:15 am 00:15 Clear 56 13.3 53 11.5 89 89 N N/A 30.13 1020 10 16 N/A
12:35 am 00:35 Clear 55 12.8 53 11.8 94 94 N N/A 30.13 1020 10 16 N/A
12:55 am 00:55 Clear 55 12.7 53 11.7 94 94 N N/A 30.13 1020 10 16 N/A
1:15 am 01:15 Clear 55 12.6 52 11.1 91 91 N N/A 30.13 1020 10 16 N/A
1:35 am 01:35 Clear 54 12.3 52 11.2 93 93 N N/A 30.13 1020 10 16 N/A
1:55 am 01:55 Clear 54 12.2 52 11.2 94 94 N N/A 30.13 1020 10 16 N/A
2:15 am 02:15 Clear 53 11.6 52 11 96 96 N N/A 30.14 1020 10 16 N/A
2:35 am 02:35 Clear 54 12 52 10.9 93 93 N N/A 30.12 1020 10 16 N/A
2:55 am 02:55 Clear 53 11.9 52 10.9 94 94 N N/A 30.13 1020 10 16 N/A
3:15 am 03:15 Clear 53 11.5 51 10.8 96 96 N N/A 30.14 1020 10 16 N/A
3:35 am 03:35 Clear 52 11.3 51 10.7 96 96 N N/A 30.14 1021 10 16 N/A
3:55 am 03:55 Clear 52 11.2 51 10.7 97 97 N N/A 30.14 1021 10 16 N/A
4:15 am 04:15 Clear 52 11 51 10.3 95 95 N N/A 30.14 1021 10 16 N/A
4:35 am 04:35 Clear 51 10.8 51 10.3 97 97 N N/A 30.14 1021 10 16 N/A
4:55 am 04:55 Clear 52 10.9 51 10.5 97 97 N N/A 30.15 1021 10 16 N/A
5:15 am 05:15 Clear 51 10.5 50 10 97 97 N N/A 30.15 1021 10 16 N/A
5:35 am 05:35 Clear 51 10.4 50 10.1 98 98 N N/A 30.15 1021 10 16 N/A
5:55 am 05:55 Clear 51 10.3 50 10 98 98 N N/A 30.15 1021 10 16 N/A
6:15 am 06:15 Sunny 51 10.5 50 10.2 98 98 N N/A 30.16 1021 10 16 N/A
6:35 am 06:35 Sunny 51 10.5 50 10.2 98 98 N N/A 30.15 1021 10 16 N/A
6:55 am 06:55 Sunny 51 10.7 51 10.4 98 98 N N/A 30.16 1021 10 16 N/A
7:15 am 07:15 Sunny 54 12 53 11.6 97 97 N N/A 30.15 1021 10 16 N/A
7:35 am 07:35 Sunny 55 12.6 54 12 96 96 N N/A 30.15 1021 10 16 N/A
7:55 am 07:55 Sunny 56 13.2 55 12.5 96 96 N N/A 30.15 1021 10 16 N/A
8:15 am 08:15 Sunny 57 14.1 55 12.6 91 91 N N/A 30.15 1021 10 16 N/A
8:35 am 08:35 Sunny 58 14.6 55 12.9 90 90 N N/A 30.15 1021 10 16 N/A
8:55 am 08:55 Sunny 60 15.4 55 13 86 86 N N/A 30.14 1021 10 16 N/A
9:15 am 09:15 Sunny 62 16.4 56 13.6 84 84 N N/A 30.13 1020 10 16 N/A
9:35 am 09:35 Sunny 63 17.4 58 14.3 82 82 N N/A 30.12 1020 10 16 N/A
9:55 am 09:55 Sunny 67 19.5 57 13.9 70 70 SSW 6 9 30.12 1020 10 16 N/A
10:15 am 10:15 Sunny 70 20.9 56 13.6 63 63 SSW 7 11 30.10 1019 10 16 N/A
10:35 am 10:35 Sunny 71 21.6 55 13 58 58 SSW 7 11 30.09 1019 10 16 N/A
10:55 am 10:55 Sunny 73 22.5 55 12.9 55 55 SW 7 11 30.08 1019 10 16 N/A
11:15 am 11:15 Sunny 73 22.7 54 12 51 51 SW 6 9 30.08 1019 10 16 N/A
11:35 am 11:35 Sunny 74 23.6 55 12.7 51 51 SSW 6 9 30.08 1018 10 16 N/A
11:55 am 11:55 Sunny 74 23.6 54 12.4 50 50 SSW 8 13 30.08 1018 10 16 N/A
12:15 pm 12:15 Sunny 76 24.3 55 12.5 48 48 SSW 7 11 30.06 1018 10 16 N/A
12:35 pm 12:35 Sunny 76 24.5 55 13 49 49 S 6 9 30.05 1018 10 16 N/A
12:55 pm 12:55 Sunny 77 24.9 54 12.3 45 45 S 10 17 30.04 1017 10 16 N/A
1:15 pm 13:15 Sunny 77 25.1 55 12.9 47 47 SSW 14 22 30.05 1018 10 16 N/A
1:35 pm 13:35 Sunny 78 25.3 55 12.6 45 45 SSW 12 19 30.04 1017 10 16 N/A
1:55 pm 13:55 Sunny 78 25.5 55 13 46 46 SSW 9 15 30.04 1017 10 16 N/A
2:15 pm 14:15 Sunny 78 25.7 56 13.4 47 47 SW 8 13 30.02 1017 10 16 N/A
2:35 pm 14:35 Sunny 79 26 56 13.1 45 45 SW 14 22 30.02 1017 10 16 N/A
2:55 pm 14:55 Sunny 79 26.1 55 12.9 44 44 S 13 20 30.01 1016 10 16 N/A
3:15 pm 15:15 Sunny 79 26.2 56 13.6 46 46 SSW 14 22 30.00 1016 10 16 N/A
3:35 pm 15:35 Sunny 79 26.1 55 12.8 44 44 S 12 19 29.98 1015 10 16 N/A
3:55 pm 15:55 Sunny 80 26.4 56 13.6 45 45 WSW 12 19 29.98 1015 10 16 N/A
4:15 pm 16:15 Sunny 79 25.9 55 12.8 44 44 SW 12 19 29.97 1015 10 16 N/A
4:35 pm 16:35 Sunny 78 25.8 56 13.6 47 47 SW 12 19 29.96 1015 10 16 N/A
4:55 pm 16:55 Sunny 79 26.1 56 13.3 45 45 SW 10 17 29.96 1015 10 16 N/A
5:15 pm 17:15 Sunny 80 26.6 57 13.8 45 45 SW 15 24 29.96 1015 10 16 N/A
5:35 pm 17:35 Sunny 78 25.3 56 13.2 47 47 SSW 12 19 29.95 1014 10 16 N/A
5:55 pm 17:55 Sunny 78 25.8 56 13.3 46 46 SW 8 13 29.94 1014 10 16 N/A
6:15 pm 18:15 Sunny 77 25.2 57 14.1 50 50 WSW 9 15 29.94 1014 10 16 N/A
6:35 pm 18:35 Sunny 78 25.5 58 14.2 50 50 SW 9 15 29.92 1013 10 16 N/A
6:55 pm 18:55 Sunny 77 25.2 57 13.9 50 50 SW 8 13 29.92 1013 10 16 N/A
7:15 pm 19:15 Sunny 77 24.9 55 12.6 46 46 SW 12 19 29.91 1013 10 16 N/A
7:35 pm 19:35 Sunny 77 24.8 55 13 48 48 SSW 7 11 29.90 1013 10 16 N/A
7:55 pm 19:55 Sunny 75 24.1 55 13 50 50 SSW 10 17 29.91 1013 10 16 N/A
8:15 pm 20:15 Sunny 75 23.8 55 12.6 50 50 SW 8 13 29.91 1013 10 16 N/A
8:35 pm 20:35 Sunny 74 23.3 55 12.7 51 51 SW 7 11 29.91 1013 10 16 N/A
8:55 pm 20:55 Sunny 71 21.8 56 13.3 59 59 WSW 6 9 29.91 1013 10 16 N/A
9:15 pm 21:15 Clear 68 20.1 57 13.9 68 68 WSW 6 9 29.91 1013 10 16 N/A
9:35 pm 21:35 Clear 64 17.9 59 15.1 84 84 W 3 6 29.91 1013 10 16 N/A
9:55 pm 21:55 Clear 64 17.6 59 14.9 84 84 N N/A 29.90 1013 10 16 N/A
10:10 pm 22:10 Clear 63 17.4 60 15.4 88 88 N N/A 29.90 1013 10 16 N/A
10:35 pm 22:35 Clear 63 17.2 59 15.2 88 88 N N/A 29.90 1013 10 16 N/A
10:55 pm 22:55 Clear 62 16.9 59 15.1 89 89 N N/A 29.92 1013 10 16 N/A
11:15 pm 23:15 Mostly Cloudy 63 17 59 15 88 88 N N/A 29.92 1013 10 16 N/A
11:35 pm 23:35 Mostly Cloudy 62 16.7 60 15.7 94 94 N N/A 29.92 1013 10 16 N/A
11:55 pm 23:55 Partly Cloudy 62 16.9 59 15.2 90 90 N N/A 29.92 1013 10 16 N/A

Powered by AerisWeather